| time (UTC) | temp F | wind direction | speed MPH | gust MPH | rain 1hr in | rain 24hr in | rain mn in | humidity % | barometer mb |
| 20260902213022 | 65 | 121 | 4.0 | 13.0 | 0.00 | 0.00 | 0.00 | 69 | 1004.2 |
| 20260902211525 | 65 | 84 | 2.0 | 7.0 | 0.00 | 0.00 | 0.00 | 69 | 1004.3 |
| 20260902210023 | 67 | 326 | 5.0 | 12.0 | 0.00 | 0.00 | 0.00 | 64 | 1004.3 |
| 20260902204524 | 66 | 192 | 5.0 | 13.0 | 0.00 | 0.00 | 0.00 | 64 | 1004.3 |
| 20260902203020 | 67 | 161 | 4.0 | 12.0 | 0.00 | 0.00 | 0.00 | 64 | 1004.4 |
| 20260902201534 | 67 | 245 | 4.0 | 11.0 | 0.00 | 0.00 | 0.00 | 64 | 1004.5 |
| 20260902200016 | 67 | 339 | 2.0 | 16.0 | 0.00 | 0.00 | 0.00 | 64 | 1004.7 |
| 20260902194528 | 67 | 10 | 2.0 | 14.0 | 0.00 | 0.00 | 0.00 | 65 | 1005.0 |
| 20260902193034 | 67 | 257 | 3.0 | 15.0 | 0.00 | 0.00 | 0.00 | 64 | 1005.2 |
| 20260902191511 | 67 | 266 | 5.0 | 13.0 | 0.00 | 0.00 | 0.00 | 64 | 1005.4 |
| 20260902190012 | 67 | 121 | 4.0 | 10.0 | 0.00 | 0.00 | 0.00 | 65 | 1005.5 |
| 20260902184505 | 66 | 98 | 5.0 | 15.0 | 0.00 | 0.00 | 0.00 | 68 | 1005.7 |
| 20260902183003 | 66 | 212 | 2.0 | 9.0 | 0.00 | 0.00 | 0.00 | 70 | 1005.8 |
| 20260902181502 | 66 | 213 | 2.0 | 10.0 | 0.00 | 0.00 | 0.00 | 70 | 1005.9 |
| 20260902180004 | 65 | 92 | 4.0 | 14.0 | 0.00 | 0.00 | 0.00 | 69 | 1005.9 |
| 20260902174600 | 65 | 167 | 4.0 | 16.0 | 0.00 | 0.00 | 0.00 | 68 | 1006.0 |
| 20260902173112 | 65 | 113 | 4.0 | 13.0 | 0.00 | 0.00 | 0.00 | 70 | 1005.9 |
| 20260902171559 | 65 | 300 | 6.0 | 15.0 | 0.00 | 0.00 | 0.00 | 71 | 1006.0 |
| 20260902170053 | 65 | 240 | 6.0 | 13.0 | 0.00 | 0.00 | 0.00 | 72 | 1006.2 |
| 20260902164550 | 64 | 157 | 6.0 | 18.0 | 0.00 | 0.00 | 0.00 | 74 | 1006.5 |
| 20260902163057 | 63 | 205 | 3.0 | 19.0 | 0.00 | 0.00 | 0.00 | 77 | 1006.8 |
| 20260902161544 | 62 | 119 | 4.0 | 10.0 | 0.00 | 0.00 | 0.00 | 78 | 1006.9 |
| 20260902160042 | 61 | 197 | 4.0 | 14.0 | 0.00 | 0.00 | 0.00 | 80 | 1007.2 |
| 20260902154541 | 61 | 151 | 4.0 | 16.0 | 0.00 | 0.00 | 0.00 | 81 | 1007.2 |
| 20260902153050 | 60 | 63 | 5.0 | 17.0 | 0.00 | 0.00 | 0.00 | 83 | 1007.2 |
| 20260902151539 | 60 | 231 | 4.0 | 13.0 | 0.00 | 0.00 | 0.00 | 83 | 1007.1 |
| 20260902150037 | 60 | 88 | 5.0 | 13.0 | 0.00 | 0.00 | 0.00 | 84 | 1007.3 |
| 20260902144538 | 60 | 220 | 2.0 | 13.0 | 0.00 | 0.00 | 0.00 | 85 | 1007.3 |
| 20260902143035 | 60 | 142 | 3.0 | 11.0 | 0.00 | 0.00 | 0.00 | 85 | 1007.4 |
| 20260902141534 | 59 | 115 | 6.0 | 15.0 | 0.00 | 0.00 | 0.00 | 85 | 1007.3 |
| 20260902140032 | 59 | 86 | 6.0 | 20.0 | 0.00 | 0.00 | 0.00 | 85 | 1007.4 |
| 20260902134540 | 59 | 307 | 3.0 | 17.0 | 0.00 | 0.00 | 0.00 | 85 | 1007.3 |
| 20260902133031 | 59 | 103 | 4.0 | 13.0 | 0.00 | 0.00 | 0.00 | 86 | 1007.3 |
| 20260902131540 | 59 | 94 | 5.0 | 16.0 | 0.00 | 0.00 | 0.00 | 86 | 1007.3 |
| 20260902130029 | 59 | 128 | 3.0 | 15.0 | 0.00 | 0.00 | 0.00 | 85 | 1007.4 |
| 20260902124529 | 59 | 47 | 4.0 | 17.0 | 0.00 | 0.00 | 0.00 | 85 | 1007.4 |
| 20260902123032 | 60 | 170 | 4.0 | 16.0 | 0.00 | 0.00 | 0.00 | 85 | 1007.2 |
| 20260902121524 | 60 | 103 | 4.0 | 15.0 | 0.00 | 0.00 | 0.00 | 85 | 1007.5 |
| 20260902120021 | 60 | 155 | 2.0 | 8.0 | 0.00 | 0.00 | 0.00 | 85 | 1007.8 |
| 20260902114520 | 60 | 200 | 3.0 | 9.0 | 0.00 | 0.00 | 0.00 | 85 | 1008.1 |
| 20260902113018 | 60 | 175 | 4.0 | 7.0 | 0.00 | 0.00 | 0.00 | 85 | 1008.2 |
| 20260902111518 | 60 | 121 | 3.0 | 8.0 | 0.00 | 0.00 | 0.00 | 85 | 1008.3 |
| 20260902110020 | 60 | 211 | 2.0 | 9.0 | 0.00 | 0.00 | 0.00 | 84 | 1008.6 |
| 20260902104514 | 60 | 92 | 2.0 | 11.0 | 0.00 | 0.00 | 0.00 | 83 | 1008.7 |
| 20260902103012 | 60 | 302 | 1.0 | 8.0 | 0.00 | 0.00 | 0.00 | 82 | 1008.6 |
| 20260902101510 | 60 | 292 | 1.0 | 10.0 | 0.00 | 0.00 | 0.00 | 82 | 1008.8 |
| 20260902100009 | 60 | 40 | 0.0 | 6.0 | 0.00 | 0.00 | 0.00 | 81 | 1008.9 |
| 20260902094506 | 60 | 250 | 2.0 | 7.0 | 0.00 | 0.00 | 0.00 | 81 | 1009.2 |
| 20260902093005 | 60 | 94 | 2.0 | 12.0 | 0.00 | 0.00 | 0.00 | 82 | 1009.1 |
| 20260902091503 | 60 | 134 | 3.0 | 9.0 | 0.00 | 0.00 | 0.00 | 84 | 1009.3 |
| 20260902090000 | 60 | 198 | 6.0 | 11.0 | 0.00 | 0.00 | 0.00 | 85 | 1009.3 |
| 20260902084601 | 60 | 129 | 3.0 | 7.0 | 0.00 | 0.00 | 0.00 | 85 | 1009.2 |
| 20260902083057 | 60 | 208 | 2.0 | 12.0 | 0.00 | 0.00 | 0.00 | 85 | 1009.4 |
| 20260902081556 | 60 | 53 | 3.0 | 11.0 | 0.00 | 0.00 | 0.00 | 86 | 1009.5 |
| 20260902080053 | 60 | 184 | 3.0 | 11.0 | 0.00 | 0.00 | 0.00 | 86 | 1009.5 |
| 20260902074558 | 61 | 180 | 4.0 | 8.0 | 0.00 | 0.00 | 0.00 | 86 | 1009.6 |
| 20260902073051 | 61 | 282 | 3.0 | 8.0 | 0.00 | 0.00 | 0.00 | 85 | 1009.7 |
| 20260902071549 | 61 | 189 | 3.0 | 9.0 | 0.00 | 0.00 | 0.00 | 85 | 1009.7 |
| 20260902070046 | 61 | 194 | 3.0 | 8.0 | 0.00 | 0.00 | 0.00 | 84 | 1009.8 |
| 20260902064546 | 61 | 207 | 0.0 | 6.0 | 0.00 | 0.00 | 0.00 | 85 | 1009.8 |
| 20260902063044 | 61 | 198 | 1.0 | 6.0 | 0.00 | 0.00 | 0.00 | 86 | 1009.8 |
| 20260902061557 | 61 | 85 | 3.0 | 7.0 | 0.00 | 0.00 | 0.00 | 86 | 1010.0 |
| 20260902060055 | 61 | 252 | 1.0 | 4.0 | 0.00 | 0.00 | 0.00 | 85 | 1010.1 |
| 20260902054605 | 62 | 191 | 0.0 | 0.0 | 0.00 | 0.00 | 0.00 | 85 | 1010.1 |
| 20260902053058 | 62 | 150 | 0.0 | 2.0 | 0.00 | 0.00 | 0.00 | 85 | 1010.2 |
| 20260902051543 | 62 | 144 | 1.0 | 6.0 | 0.00 | 0.00 | 0.00 | 85 | 1010.2 |
| 20260902050042 | 62 | 105 | 1.0 | 10.0 | 0.00 | 0.00 | 0.00 | 85 | 1010.3 |
| 20260902044542 | 62 | 88 | 1.0 | 4.0 | 0.00 | 0.00 | 0.00 | 84 | 1010.3 |
| 20260902043044 | 62 | 220 | 2.0 | 8.0 | 0.00 | 0.00 | 0.00 | 84 | 1010.3 |
| 20260902041541 | 62 | 52 | 1.0 | 6.0 | 0.00 | 0.00 | 0.00 | 82 | 1010.3 |
| 20260902040047 | 62 | 158 | 0.0 | 2.0 | 0.00 | 0.00 | 0.00 | 82 | 1010.3 |
| 20260902034540 | 61 | 145 | 0.0 | 5.0 | 0.00 | 0.00 | 0.00 | 84 | 1010.3 |
| 20260902033039 | 60 | 165 | 0.0 | 1.0 | 0.00 | 0.00 | 0.00 | 84 | 1010.3 |
| 20260902031544 | 60 | 163 | 0.0 | 2.0 | 0.00 | 0.00 | 0.00 | 84 | 1010.2 |
| 20260902030039 | 60 | 163 | 0.0 | 0.0 | 0.00 | 0.00 | 0.00 | 84 | 1010.1 |
| 20260902024540 | 61 | 163 | 0.0 | 2.0 | 0.00 | 0.00 | 0.00 | 83 | 1010.1 |
| 20260902023042 | 61 | 162 | 0.0 | 0.0 | 0.00 | 0.00 | 0.00 | 84 | 1010.1 |
| 20260902021537 | 60 | 162 | 0.0 | 0.0 | 0.00 | 0.00 | 0.00 | 86 | 1010.0 |
| 20260902020038 | 61 | 162 | 0.0 | 0.0 | 0.00 | 0.00 | 0.00 | 85 | 1010.1 |
| 20260902014536 | 62 | 162 | 0.0 | 0.0 | 0.00 | 0.00 | 0.00 | 83 | 1010.2 |
| 20260902013038 | 63 | 162 | 0.0 | 3.0 | 0.00 | 0.00 | 0.00 | 79 | 1010.2 |
| 20260902011536 | 63 | 170 | 0.0 | 3.0 | 0.00 | 0.00 | 0.00 | 78 | 1010.1 |
| 20260902010034 | 63 | 197 | 0.0 | 2.0 | 0.00 | 0.00 | 0.00 | 78 | 1010.1 |
| 20260902004535 | 63 | 207 | 0.0 | 4.0 | 0.00 | 0.00 | 0.00 | 78 | 1010.1 |
| 20260902003038 | 63 | 175 | 0.0 | 5.0 | 0.00 | 0.00 | 0.00 | 77 | 1010.0 |
| 20260902001552 | 64 | 219 | 1.0 | 4.0 | 0.00 | 0.00 | 0.00 | 77 | 1010.0 |
| 20260902000037 | 65 | 180 | 1.0 | 9.0 | 0.00 | 0.00 | 0.00 | 76 | 1010.0 |
| 20260901234533 | 66 | 202 | 0.0 | 6.0 | 0.00 | 0.00 | 0.00 | 76 | 1010.0 |
| 20260901233035 | 66 | 194 | 2.0 | 7.0 | 0.00 | 0.00 | 0.00 | 75 | 1010.0 |
| 20260901231533 | 67 | 150 | 3.0 | 7.0 | 0.00 | 0.00 | 0.00 | 73 | 1009.9 |
| 20260901230031 | 68 | 217 | 4.0 | 7.0 | 0.00 | 0.00 | 0.00 | 70 | 1009.9 |
| 20260901224530 | 68 | 154 | 2.0 | 10.0 | 0.00 | 0.00 | 0.00 | 69 | 1009.9 |
| 20260901223027 | 67 | 277 | 4.0 | 10.0 | 0.00 | 0.00 | 0.00 | 72 | 1010.0 |
| 20260901221524 | 67 | 161 | 3.0 | 8.0 | 0.00 | 0.00 | 0.00 | 76 | 1010.1 |
| 20260901220023 | 67 | 120 | 3.0 | 12.0 | 0.00 | 0.00 | 0.00 | 75 | 1010.1 |
| 20260901214521 | 66 | 294 | 4.0 | 12.0 | 0.00 | 0.00 | 0.00 | 77 | 1010.3 |